Time,TemperatureF,DewpointF,PressureIn,WindDirection,WindDirectionDegrees,WindSpeedMPH,WindSpeedGustMPH,Humidity,HourlyPrecipIn,Conditions,Clouds,dailyrainin,SoftwareType,DateUTC
2013-01-22 00:00:00,7.2,-2.4,30.31,NW,315,5.0,9.0,64,0.00,,,0.00,VWS V14.01,2013-01-22 05:00:00,
2013-01-22 00:02:00,7.2,-2.1,30.31,WNW,291,3.0,9.0,65,0.00,,,0.00,VWS V14.01,2013-01-22 05:02:00,
2013-01-22 00:07:00,7.1,-2.2,30.30,SW,233,4.0,9.0,65,0.00,,,0.00,VWS V14.01,2013-01-22 05:07:00,
2013-01-22 00:12:00,7.0,-2.3,30.30,WNW,283,4.0,11.0,65,0.00,,,0.00,VWS V14.01,2013-01-22 05:12:00,
2013-01-22 00:17:00,6.9,-2.0,30.31,West,273,10.0,13.0,66,0.00,,,0.00,VWS V14.01,2013-01-22 05:17:00,
2013-01-22 00:22:00,6.9,-2.0,30.31,West,274,4.0,13.0,66,0.00,,,0.00,VWS V14.01,2013-01-22 05:22:00,
2013-01-22 00:27:00,6.7,-2.2,30.31,NW,306,8.0,13.0,66,0.00,,,0.00,VWS V14.01,2013-01-22 05:27:00,
2013-01-22 00:30:00,6.7,-2.2,30.31,WNW,294,7.0,13.0,66,0.00,,,0.00,VWS V14.01,2013-01-22 05:30:00,
2013-01-22 00:32:00,6.6,-2.3,30.30,West,281,3.0,12.0,66,0.00,,,0.00,VWS V14.01,2013-01-22 05:32:00,
2013-01-22 00:37:00,6.6,-2.0,30.31,WSW,252,4.0,12.0,67,0.00,,,0.00,VWS V14.01,2013-01-22 05:37:00,
2013-01-22 00:42:00,6.5,-2.1,30.31,WNW,282,6.0,12.0,67,0.00,,,0.00,VWS V14.01,2013-01-22 05:42:00,
2013-01-22 00:47:00,6.4,-2.2,30.31,WNW,294,1.0,14.0,67,0.00,,,0.00,VWS V14.01,2013-01-22 05:47:00,
2013-01-22 00:52:00,6.3,-2.0,30.31,NW,309,3.0,14.0,68,0.00,,,0.00,VWS V14.01,2013-01-22 05:52:00,
2013-01-22 00:57:00,6.3,-2.0,30.31,WNW,285,4.0,14.0,68,0.00,,,0.00,VWS V14.01,2013-01-22 05:57:00,
2013-01-22 01:00:00,6.3,-2.0,30.31,WNW,299,3.0,14.0,68,0.00,,,0.00,VWS V14.01,2013-01-22 06:00:00,
2013-01-22 01:02:00,6.2,-1.8,30.31,WNW,293,7.0,10.0,69,0.00,,,0.00,VWS V14.01,2013-01-22 06:02:00,
2013-01-22 01:07:00,6.2,-1.8,30.31,WNW,292,6.0,11.0,69,0.00,,,0.00,VWS V14.01,2013-01-22 06:07:00,
2013-01-22 01:12:00,6.1,-1.9,30.31,WNW,284,5.0,11.0,69,0.00,,,0.00,VWS V14.01,2013-01-22 06:12:00,
2013-01-22 01:17:00,6.1,-1.6,30.31,WNW,300,4.0,11.0,70,0.00,,,0.00,VWS V14.01,2013-01-22 06:17:00,
2013-01-22 01:22:00,6.0,-1.7,30.31,NW,323,1.0,12.0,70,0.00,,,0.00,VWS V14.01,2013-01-22 06:22:00,
2013-01-22 01:27:00,5.9,-1.8,30.32,WSW,248,1.0,12.0,70,0.00,,,0.00,VWS V14.01,2013-01-22 06:27:00,
2013-01-22 01:30:00,5.9,-1.8,30.32,WSW,253,0.0,12.0,70,0.00,,,0.00,VWS V14.01,2013-01-22 06:30:00,
2013-01-22 01:32:00,5.8,-1.9,30.31,NW,312,3.0,9.0,70,0.00,,,0.00,VWS V14.01,2013-01-22 06:32:00,
2013-01-22 01:37:00,5.7,-2.0,30.31,WNW,295,3.0,9.0,70,0.00,,,0.00,VWS V14.01,2013-01-22 06:37:00,
2013-01-22 01:42:00,5.7,-2.0,30.32,NW,305,4.0,9.0,70,0.00,,,0.00,VWS V14.01,2013-01-22 06:42:00,
2013-01-22 01:47:00,5.6,-2.0,30.31,WNW,297,2.0,9.0,70,0.00,,,0.00,VWS V14.01,2013-01-22 06:47:00,
2013-01-22 01:52:00,5.6,-2.0,30.32,NW,323,3.0,12.0,70,0.00,,,0.00,VWS V14.01,2013-01-22 06:52:00,
2013-01-22 01:57:00,5.5,-1.9,30.31,WNW,297,1.0,12.0,71,0.00,,,0.00,VWS V14.01,2013-01-22 06:57:00,
2013-01-22 02:00:00,5.5,-1.9,30.31,WNW,297,0.0,12.0,71,0.00,,,0.00,VWS V14.01,2013-01-22 07:00:00,
2013-01-22 02:02:00,5.4,-1.9,30.32,WNW,302,2.0,10.0,71,0.00,,,0.00,VWS V14.01,2013-01-22 07:02:00,
2013-01-22 02:07:00,5.4,-1.6,30.32,West,259,3.0,10.0,72,0.00,,,0.00,VWS V14.01,2013-01-22 07:07:00,
2013-01-22 02:12:00,5.3,-1.8,30.32,West,273,5.0,10.0,72,0.00,,,0.00,VWS V14.01,2013-01-22 07:12:00,
2013-01-22 02:17:00,5.2,-1.8,30.32,NW,326,1.0,10.0,72,0.00,,,0.00,VWS V14.01,2013-01-22 07:17:00,
2013-01-22 02:22:00,5.2,-1.8,30.32,West,266,11.0,11.0,72,0.00,,,0.00,VWS V14.01,2013-01-22 07:22:00,
2013-01-22 02:27:00,5.2,-1.8,30.33,WNW,297,3.0,11.0,72,0.00,,,0.00,VWS V14.01,2013-01-22 07:27:00,
2013-01-22 02:30:00,5.1,-1.9,30.33,NW,323,2.0,11.0,72,0.00,,,0.00,VWS V14.01,2013-01-22 07:30:00,
2013-01-22 02:32:00,5.1,-1.9,30.33,NW,305,4.0,7.0,72,0.00,,,0.00,VWS V14.01,2013-01-22 07:32:00,
2013-01-22 02:37:00,5.1,-1.9,30.33,NW,311,1.0,7.0,72,0.00,,,0.00,VWS V14.01,2013-01-22 07:37:00,
2013-01-22 02:42:00,5.0,-1.8,30.33,WNW,302,2.0,8.0,73,0.00,,,0.00,VWS V14.01,2013-01-22 07:42:00,
2013-01-22 02:47:00,5.0,-1.8,30.33,West,271,1.0,8.0,73,0.00,,,0.00,VWS V14.01,2013-01-22 07:47:00,
2013-01-22 02:52:00,5.0,-1.8,30.33,NNW,329,3.0,8.0,73,0.00,,,0.00,VWS V14.01,2013-01-22 07:52:00,
2013-01-22 02:57:00,4.9,-1.6,30.34,WNW,290,6.0,9.0,74,0.00,,,0.00,VWS V14.01,2013-01-22 07:57:00,
2013-01-22 03:00:00,4.9,-1.6,30.34,WNW,299,4.0,9.0,74,0.00,,,0.00,VWS V14.01,2013-01-22 08:00:00,
2013-01-22 03:02:00,4.8,-1.6,30.34,West,270,3.0,9.0,74,0.00,,,0.00,VWS V14.01,2013-01-22 08:02:00,
2013-01-22 03:07:00,4.8,-1.6,30.34,WNW,297,6.0,9.0,74,0.00,,,0.00,VWS V14.01,2013-01-22 08:07:00,
2013-01-22 03:12:00,4.7,-1.5,30.34,West,273,6.0,9.0,75,0.00,,,0.00,VWS V14.01,2013-01-22 08:12:00,
2013-01-22 03:17:00,4.7,-1.5,30.34,NW,315,3.0,9.0,75,0.00,,,0.00,VWS V14.01,2013-01-22 08:17:00,
2013-01-22 03:22:00,4.6,-1.3,30.34,WNW,285,4.0,9.0,76,0.00,,,0.00,VWS V14.01,2013-01-22 08:22:00,
2013-01-22 03:27:00,4.6,-1.3,30.34,WNW,287,4.0,9.0,76,0.00,,,0.00,VWS V14.01,2013-01-22 08:27:00,
2013-01-22 03:30:00,4.6,-1.3,30.34,NW,311,4.0,9.0,76,0.00,,,0.00,VWS V14.01,2013-01-22 08:30:00,
2013-01-22 03:32:00,4.5,-1.4,30.34,SW,226,0.0,9.0,76,0.00,,,0.00,VWS V14.01,2013-01-22 08:32:00,
2013-01-22 03:37:00,4.5,-1.1,30.34,WNW,289,3.0,9.0,77,0.00,,,0.00,VWS V14.01,2013-01-22 08:37:00,
2013-01-22 03:42:00,4.5,-1.4,30.34,WNW,288,1.0,9.0,76,0.00,,,0.00,VWS V14.01,2013-01-22 08:42:00,
2013-01-22 03:47:00,4.5,-1.4,30.34,WNW,284,2.0,9.0,76,0.00,,,0.00,VWS V14.01,2013-01-22 08:47:00,
2013-01-22 03:52:00,4.5,-1.4,30.34,West,279,5.0,9.0,76,0.00,,,0.00,VWS V14.01,2013-01-22 08:52:00,
2013-01-22 03:57:00,4.4,-1.2,30.34,NNW,334,1.0,9.0,77,0.00,,,0.00,VWS V14.01,2013-01-22 08:57:00,
2013-01-22 04:00:00,4.4,-1.2,30.35,WNW,287,4.0,9.0,77,0.00,,,0.00,VWS V14.01,2013-01-22 09:00:00,
2013-01-22 04:02:00,4.4,-1.0,30.34,WNW,288,0.0,7.0,77,0.00,,,0.00,weatherlink.com 1.10,2013-01-22 09:02:00,
2013-01-22 04:07:00,4.4,-1.2,30.34,WNW,290,2.0,6.0,77,0.00,,,0.00,VWS V14.01,2013-01-22 09:07:00,
2013-01-22 04:12:00,4.4,-1.2,30.35,WSW,252,4.0,6.0,77,0.00,,,0.00,VWS V14.01,2013-01-22 09:12:00,
2013-01-22 04:17:00,4.4,-1.2,30.34,West,281,3.0,9.0,77,0.00,,,0.00,VWS V14.01,2013-01-22 09:17:00,
2013-01-22 04:22:00,4.4,-1.2,30.35,NNW,340,0.0,9.0,77,0.00,,,0.00,VWS V14.01,2013-01-22 09:22:00,
2013-01-22 04:27:00,4.4,-1.2,30.35,South,181,1.0,9.0,77,0.00,,,0.00,VWS V14.01,2013-01-22 09:27:00,
2013-01-22 04:30:00,4.4,-1.2,30.35,SW,226,1.0,9.0,77,0.00,,,0.00,VWS V14.01,2013-01-22 09:30:00,
2013-01-22 04:32:00,4.4,-1.5,30.35,SW,215,3.0,8.0,76,0.00,,,0.00,VWS V14.01,2013-01-22 09:32:00,
2013-01-22 04:37:00,4.4,-1.5,30.35,SW,216,3.0,8.0,76,0.00,,,0.00,VWS V14.01,2013-01-22 09:37:00,
2013-01-22 04:42:00,4.3,-1.3,30.35,SW,228,3.0,8.0,77,0.00,,,0.00,VWS V14.01,2013-01-22 09:42:00,
2013-01-22 04:47:00,4.3,-1.3,30.35,WNW,285,7.0,9.0,77,0.00,,,0.00,VWS V14.01,2013-01-22 09:47:00,
2013-01-22 04:52:00,4.3,-1.3,30.35,WNW,293,5.0,9.0,77,0.00,,,0.00,VWS V14.01,2013-01-22 09:52:00,
2013-01-22 04:57:00,4.2,-1.4,30.35,WSW,250,2.0,9.0,77,0.00,,,0.00,VWS V14.01,2013-01-22 09:57:00,
2013-01-22 05:00:00,4.2,-1.4,30.35,WSW,252,2.0,9.0,77,0.00,,,0.00,VWS V14.01,2013-01-22 10:00:00,
2013-01-22 05:07:00,4.1,-1.2,30.36,WNW,297,3.0,3.0,78,0.00,,,0.00,VWS V14.01,2013-01-22 10:07:00,
2013-01-22 05:13:00,4.1,-1.0,30.36,SW,224,1.0,9.0,78,0.00,,,0.00,weatherlink.com 1.10,2013-01-22 10:13:00,
2013-01-22 05:18:00,4.0,-1.3,30.36,WNW,290,4.0,4.0,78,0.00,,,0.00,VWS V14.01,2013-01-22 10:18:00,
2013-01-22 05:24:00,3.9,-1.4,30.36,West,278,4.0,4.0,78,0.00,,,0.00,VWS V14.01,2013-01-22 10:24:00,
2013-01-22 05:29:00,3.9,-1.4,30.36,WNW,301,5.0,6.0,78,0.00,,,0.00,VWS V14.01,2013-01-22 10:29:00,
2013-01-22 05:30:00,3.9,-1.4,30.36,WNW,284,2.0,6.0,78,0.00,,,0.00,VWS V14.01,2013-01-22 10:30:00,
2013-01-22 05:34:00,3.9,-1.4,30.36,WNW,287,0.0,8.0,78,0.00,,,0.00,VWS V14.01,2013-01-22 10:34:00,
2013-01-22 05:39:00,3.9,-1.4,30.36,WSW,251,3.0,8.0,78,0.00,,,0.00,VWS V14.01,2013-01-22 10:39:00,
2013-01-22 05:44:00,3.8,-1.5,30.37,WNW,287,1.0,8.0,78,0.00,,,0.00,VWS V14.01,2013-01-22 10:44:00,
2013-01-22 05:49:00,3.8,-1.5,30.37,WNW,295,2.0,11.0,78,0.00,,,0.00,VWS V14.01,2013-01-22 10:49:00,
2013-01-22 05:54:00,3.8,-1.5,30.37,WNW,303,3.0,12.0,78,0.00,,,0.00,VWS V14.01,2013-01-22 10:54:00,
2013-01-22 05:59:00,3.8,-1.5,30.37,WSW,246,4.0,4.0,78,0.00,,,0.00,VWS V14.01,2013-01-22 10:59:00,
2013-01-22 06:00:00,3.8,-1.5,30.37,WSW,250,3.0,12.0,78,0.00,,,0.00,VWS V14.01,2013-01-22 11:00:00,
2013-01-22 06:04:00,3.7,-1.6,30.37,SW,233,4.0,11.0,78,0.00,,,0.00,VWS V14.01,2013-01-22 11:04:00,
2013-01-22 06:09:00,3.7,-1.6,30.37,WNW,298,3.0,11.0,78,0.00,,,0.00,VWS V14.01,2013-01-22 11:09:00,
2013-01-22 06:14:00,3.7,-1.6,30.37,NW,314,6.0,11.0,78,0.00,,,0.00,VWS V14.01,2013-01-22 11:14:00,
2013-01-22 06:19:00,3.7,-1.6,30.37,WNW,300,1.0,11.0,78,0.00,,,0.00,VWS V14.01,2013-01-22 11:19:00,
2013-01-22 06:24:00,3.6,-1.4,30.37,WNW,289,5.0,11.0,79,0.00,,,0.00,VWS V14.01,2013-01-22 11:24:00,
2013-01-22 06:29:00,3.6,-1.7,30.37,NNW,330,3.0,7.0,78,0.00,,,0.00,VWS V14.01,2013-01-22 11:29:00,
2013-01-22 06:30:00,3.6,-1.7,30.37,WNW,286,7.0,11.0,78,0.00,,,0.00,VWS V14.01,2013-01-22 11:30:00,
2013-01-22 06:34:00,3.6,-1.7,30.37,NW,304,2.0,7.0,78,0.00,,,0.00,VWS V14.01,2013-01-22 11:34:00,
2013-01-22 06:39:00,3.5,-1.8,30.38,WNW,287,2.0,10.0,78,0.00,,,0.00,VWS V14.01,2013-01-22 11:39:00,
2013-01-22 06:44:00,3.5,-1.8,30.38,WNW,293,1.0,10.0,78,0.00,,,0.00,VWS V14.01,2013-01-22 11:44:00,
2013-01-22 06:49:00,3.5,-1.8,30.38,WNW,283,5.0,10.0,78,0.00,,,0.00,VWS V14.01,2013-01-22 11:49:00,
2013-01-22 06:54:00,3.4,-1.9,30.38,WNW,283,2.0,10.0,78,0.00,,,0.00,VWS V14.01,2013-01-22 11:54:00,
2013-01-22 06:59:00,3.4,-1.9,30.38,WNW,297,3.0,6.0,78,0.00,,,0.00,VWS V14.01,2013-01-22 11:59:00,
2013-01-22 07:00:00,3.4,-1.9,30.38,WNW,297,5.0,11.0,78,0.00,,,0.00,VWS V14.01,2013-01-22 12:00:00,
2013-01-22 07:04:00,3.4,-1.9,30.38,WSW,255,2.0,7.0,78,0.00,,,0.00,VWS V14.01,2013-01-22 12:04:00,
2013-01-22 07:09:00,3.3,-2.0,30.38,NW,312,2.0,7.0,78,0.00,,,0.00,VWS V14.01,2013-01-22 12:09:00,
2013-01-22 07:14:00,3.3,-2.0,30.39,WSW,255,1.0,8.0,78,0.00,,,0.00,VWS V14.01,2013-01-22 12:14:00,
2013-01-22 07:19:00,3.3,-2.0,30.39,WNW,302,6.0,8.0,78,0.00,,,0.00,VWS V14.01,2013-01-22 12:19:00,
2013-01-22 07:24:00,3.3,-2.0,30.39,WNW,302,1.0,8.0,78,0.00,,,0.00,VWS V14.01,2013-01-22 12:24:00,
2013-01-22 07:29:00,3.3,-2.0,30.39,WNW,290,2.0,5.0,78,0.00,,,0.00,VWS V14.01,2013-01-22 12:29:00,
2013-01-22 07:30:00,3.3,-2.0,30.39,NW,307,1.0,8.0,78,0.00,,,0.00,VWS V14.01,2013-01-22 12:30:00,
2013-01-22 07:34:00,3.3,-2.0,30.39,WNW,295,2.0,7.0,78,0.00,,,0.00,VWS V14.01,2013-01-22 12:34:00,
2013-01-22 07:39:00,3.2,-2.1,30.39,WNW,287,3.0,7.0,78,0.00,,,0.00,VWS V14.01,2013-01-22 12:39:00,
2013-01-22 07:44:00,3.3,-2.0,30.39,West,277,4.0,7.0,78,0.00,,,0.00,VWS V14.01,2013-01-22 12:44:00,
2013-01-22 07:49:00,3.2,-2.1,30.39,WNW,293,2.0,7.0,78,0.00,,,0.00,VWS V14.01,2013-01-22 12:49:00,
2013-01-22 07:54:00,3.2,-2.1,30.39,WNW,295,2.0,7.0,78,0.00,,,0.00,VWS V14.01,2013-01-22 12:54:00,
2013-01-22 07:59:00,3.2,-2.1,30.39,NW,316,2.0,2.0,78,0.00,,,0.00,VWS V14.01,2013-01-22 12:59:00,
2013-01-22 08:00:00,3.2,-2.1,30.39,WNW,285,1.0,7.0,78,0.00,,,0.00,VWS V14.01,2013-01-22 13:00:00,
2013-01-22 08:04:00,3.1,-1.9,30.39,West,264,3.0,7.0,79,0.00,,,0.00,VWS V14.01,2013-01-22 13:04:00,
2013-01-22 08:09:00,3.1,-1.9,30.40,WNW,295,2.0,7.0,79,0.00,,,0.00,VWS V14.01,2013-01-22 13:09:00,
2013-01-22 08:14:00,3.1,-1.9,30.40,West,278,2.0,10.0,79,0.00,,,0.00,VWS V14.01,2013-01-22 13:14:00,
2013-01-22 08:19:00,3.2,-1.8,30.40,NW,315,2.0,10.0,79,0.00,,,0.00,VWS V14.01,2013-01-22 13:19:00,
2013-01-22 08:24:00,3.1,-1.9,30.40,West,264,0.0,10.0,79,0.00,,,0.00,VWS V14.01,2013-01-22 13:24:00,
2013-01-22 08:29:00,3.2,-1.8,30.40,NW,305,0.0,3.0,79,0.00,,,0.00,VWS V14.01,2013-01-22 13:29:00,
2013-01-22 08:30:00,3.2,-1.8,30.40,WNW,293,3.0,10.0,79,0.00,,,0.00,VWS V14.01,2013-01-22 13:30:00,
2013-01-22 08:34:00,3.3,-1.7,30.40,WNW,290,4.0,7.0,79,0.00,,,0.00,VWS V14.01,2013-01-22 13:34:00,
2013-01-22 08:39:00,3.3,-1.7,30.40,West,280,0.0,7.0,79,0.00,,,0.00,VWS V14.01,2013-01-22 13:39:00,
2013-01-22 08:44:00,3.5,-1.5,30.40,WSW,241,1.0,7.0,79,0.00,,,0.00,VWS V14.01,2013-01-22 13:44:00,
2013-01-22 08:49:00,3.7,-1.6,30.40,WNW,294,3.0,9.0,78,0.00,,,0.00,VWS V14.01,2013-01-22 13:49:00,
2013-01-22 08:54:00,3.8,-1.5,30.41,NW,318,2.0,9.0,78,0.00,,,0.00,VWS V14.01,2013-01-22 13:54:00,
2013-01-22 08:59:00,4.0,-1.6,30.41,WNW,288,3.0,5.0,77,0.00,,,0.00,VWS V14.01,2013-01-22 13:59:00,
2013-01-22 09:00:00,3.9,-1.4,30.41,West,274,4.0,9.0,78,0.00,,,0.00,VWS V14.01,2013-01-22 14:00:00,
2013-01-22 09:04:00,4.0,-1.6,30.41,WNW,282,1.0,8.0,77,0.00,,,0.00,VWS V14.01,2013-01-22 14:04:00,
2013-01-22 09:09:00,4.1,-1.5,30.41,West,267,6.0,8.0,77,0.00,,,0.00,VWS V14.01,2013-01-22 14:09:00,
2013-01-22 09:14:00,4.2,-1.4,30.42,NW,318,3.0,8.0,77,0.00,,,0.00,VWS V14.01,2013-01-22 14:14:00,
2013-01-22 09:19:00,4.2,-1.7,30.42,NW,323,5.0,9.0,76,0.00,,,0.00,VWS V14.01,2013-01-22 14:19:00,
2013-01-22 09:24:00,4.4,-1.5,30.42,West,273,2.0,9.0,76,0.00,,,0.00,VWS V14.01,2013-01-22 14:24:00,
2013-01-22 09:29:00,4.7,-1.2,30.42,WNW,297,2.0,6.0,76,0.00,,,0.00,VWS V14.01,2013-01-22 14:29:00,
2013-01-22 09:30:00,4.6,-1.0,30.42,WNW,299,6.0,9.0,77,0.00,,,0.00,VWS V14.01,2013-01-22 14:30:00,
2013-01-22 09:34:00,4.8,-1.1,30.42,West,260,3.0,9.0,76,0.00,,,0.00,VWS V14.01,2013-01-22 14:34:00,
2013-01-22 09:39:00,4.6,-1.3,30.42,West,269,5.0,9.0,76,0.00,,,0.00,VWS V14.01,2013-01-22 14:39:00,
2013-01-22 09:44:00,4.5,-1.4,30.42,WNW,290,4.0,9.0,76,0.00,,,0.00,VWS V14.01,2013-01-22 14:44:00,
2013-01-22 09:49:00,4.4,-1.5,30.42,WNW,299,6.0,9.0,76,0.00,,,0.00,VWS V14.01,2013-01-22 14:49:00,
2013-01-22 09:54:00,4.6,-1.6,30.43,WNW,289,4.0,9.0,75,0.00,,,0.00,VWS V14.01,2013-01-22 14:54:00,
2013-01-22 09:59:00,4.5,-1.7,30.43,WNW,302,2.0,5.0,75,0.00,,,0.00,VWS V14.01,2013-01-22 14:59:00,
2013-01-22 10:00:00,4.6,-1.6,30.43,WNW,284,7.0,9.0,75,0.00,,,0.00,VWS V14.01,2013-01-22 15:00:00,
2013-01-22 10:04:00,4.6,-1.9,30.43,NW,319,4.0,8.0,74,0.00,,,0.00,VWS V14.01,2013-01-22 15:04:00,
2013-01-22 10:09:00,4.6,-1.9,30.43,West,269,4.0,8.0,74,0.00,,,0.00,VWS V14.01,2013-01-22 15:09:00,
2013-01-22 10:14:00,4.6,-1.9,30.43,West,269,2.0,8.0,74,0.00,,,0.00,VWS V14.01,2013-01-22 15:14:00,
2013-01-22 10:19:00,4.8,-1.4,30.44,WSW,250,5.0,8.0,75,0.00,,,0.00,VWS V14.01,2013-01-22 15:19:00,
2013-01-22 10:24:00,5.1,-1.4,30.44,WSW,244,4.0,8.0,74,0.00,,,0.00,VWS V14.01,2013-01-22 15:24:00,
2013-01-22 10:29:00,5.0,-2.0,30.44,WNW,302,2.0,7.0,72,0.00,,,0.00,VWS V14.01,2013-01-22 15:29:00,
2013-01-22 10:30:00,5.1,-1.9,30.44,West,280,4.0,8.0,72,0.00,,,0.00,VWS V14.01,2013-01-22 15:30:00,
2013-01-22 10:34:00,5.1,-1.6,30.44,WSW,248,2.0,7.0,73,0.00,,,0.00,VWS V14.01,2013-01-22 15:34:00,
2013-01-22 10:39:00,5.3,-1.8,30.44,NW,323,4.0,7.0,72,0.00,,,0.00,VWS V14.01,2013-01-22 15:39:00,
2013-01-22 10:44:00,5.3,-1.5,30.44,WNW,297,1.0,7.0,73,0.00,,,0.00,VWS V14.01,2013-01-22 15:44:00,
2013-01-22 10:49:00,5.4,-1.6,30.44,WNW,299,5.0,11.0,72,0.00,,,0.00,VWS V14.01,2013-01-22 15:49:00,
2013-01-22 10:54:00,5.6,-1.8,30.44,NW,309,4.0,11.0,71,0.00,,,0.00,VWS V14.01,2013-01-22 15:54:00,
2013-01-22 10:59:00,5.9,-1.5,30.44,WNW,297,3.0,8.0,71,0.00,,,0.00,VWS V14.01,2013-01-22 15:59:00,
2013-01-22 11:00:00,5.8,-1.6,30.44,West,259,0.0,11.0,71,0.00,,,0.00,VWS V14.01,2013-01-22 16:00:00,
2013-01-22 11:04:00,6.2,-0.9,30.44,WSW,253,3.0,8.0,72,0.00,,,0.00,VWS V14.01,2013-01-22 16:04:00,
2013-01-22 11:09:00,6.8,-0.9,30.44,SW,219,1.0,8.0,70,0.00,,,0.00,VWS V14.01,2013-01-22 16:09:00,
2013-01-22 11:14:00,7.2,-0.8,30.44,WNW,282,0.0,10.0,69,0.00,,,0.00,VWS V14.01,2013-01-22 16:14:00,
2013-01-22 11:19:00,7.4,-1.2,30.44,SW,219,6.0,10.0,67,0.00,,,0.00,VWS V14.01,2013-01-22 16:19:00,
2013-01-22 11:24:00,7.9,-0.8,30.44,WSW,241,3.0,10.0,67,0.00,,,0.00,VWS V14.01,2013-01-22 16:24:00,
2013-01-22 11:29:00,8.3,-0.7,30.44,SSW,207,0.0,6.0,66,0.00,,,0.00,VWS V14.01,2013-01-22 16:29:00,
2013-01-22 11:30:00,8.2,-0.8,30.44,West,279,1.0,10.0,66,0.00,,,0.00,VWS V14.01,2013-01-22 16:30:00,
2013-01-22 11:34:00,8.9,-0.4,30.44,West,279,3.0,8.0,65,0.00,,,0.00,VWS V14.01,2013-01-22 16:34:00,
2013-01-22 11:39:00,9.3,-0.1,30.44,West,276,1.0,13.0,65,0.00,,,0.00,VWS V14.01,2013-01-22 16:39:00,
2013-01-22 11:44:00,9.4,-0.6,30.44,West,277,4.0,13.0,63,0.00,,,0.00,VWS V14.01,2013-01-22 16:44:00,
2013-01-22 11:49:00,9.6,-0.1,30.44,West,277,4.0,13.0,64,0.00,,,0.00,VWS V14.01,2013-01-22 16:49:00,
2013-01-22 11:54:00,9.6,-0.8,30.44,West,259,6.0,13.0,62,0.00,,,0.00,VWS V14.01,2013-01-22 16:54:00,
2013-01-22 11:59:00,9.5,-0.5,30.43,NW,304,3.0,7.0,63,0.00,,,0.00,VWS V14.01,2013-01-22 16:59:00,
2013-01-22 12:00:00,9.4,-1.0,30.43,West,260,3.0,13.0,62,0.00,,,0.00,VWS V14.01,2013-01-22 17:00:00,
2013-01-22 12:04:00,9.2,-1.2,30.43,WSW,249,5.0,11.0,62,0.00,,,0.00,VWS V14.01,2013-01-22 17:04:00,
2013-01-22 12:09:00,8.9,-1.5,30.44,WNW,297,3.0,11.0,62,0.00,,,0.00,VWS V14.01,2013-01-22 17:09:00,
2013-01-22 12:14:00,8.5,-2.2,30.43,NW,323,4.0,11.0,61,0.00,,,0.00,VWS V14.01,2013-01-22 17:14:00,
2013-01-22 12:19:00,8.5,-1.5,30.43,NW,315,0.0,11.0,63,0.00,,,0.00,VWS V14.01,2013-01-22 17:19:00,
2013-01-22 12:24:00,9.0,-1.0,30.42,West,277,5.0,11.0,63,0.00,,,0.00,VWS V14.01,2013-01-22 17:24:00,
2013-01-22 12:29:00,9.4,-0.6,30.42,WNW,294,4.0,9.0,63,0.00,,,0.00,VWS V14.01,2013-01-22 17:29:00,
2013-01-22 12:30:00,9.3,-0.4,30.42,NW,315,2.0,11.0,64,0.00,,,0.00,VWS V14.01,2013-01-22 17:30:00,
2013-01-22 12:34:00,9.2,-1.2,30.42,WNW,293,4.0,11.0,62,0.00,,,0.00,VWS V14.01,2013-01-22 17:34:00,
2013-01-22 12:39:00,8.9,-1.5,30.42,West,278,2.0,11.0,62,0.00,,,0.00,VWS V14.01,2013-01-22 17:39:00,
2013-01-22 12:44:00,8.8,-0.9,30.42,WNW,289,2.0,11.0,64,0.00,,,0.00,VWS V14.01,2013-01-22 17:44:00,
2013-01-22 12:49:00,8.9,-0.8,30.41,SW,233,4.0,11.0,64,0.00,,,0.00,VWS V14.01,2013-01-22 17:49:00,
2013-01-22 12:54:00,9.0,-1.0,30.41,SW,218,2.0,11.0,63,0.00,,,0.00,VWS V14.01,2013-01-22 17:54:00,
2013-01-22 12:59:00,9.4,-1.0,30.41,West,262,5.0,5.0,62,0.00,,,0.00,VWS V14.01,2013-01-22 17:59:00,
2013-01-22 13:00:00,9.3,-1.1,30.41,WSW,240,2.0,11.0,62,0.00,,,0.00,VWS V14.01,2013-01-22 18:00:00,
2013-01-22 13:04:00,10.2,-0.2,30.40,SW,232,2.0,5.0,62,0.00,,,0.00,VWS V14.01,2013-01-22 18:04:00,
2013-01-22 13:09:00,10.2,-0.6,30.40,NW,307,3.0,6.0,61,0.00,,,0.00,VWS V14.01,2013-01-22 18:09:00,
2013-01-22 13:14:00,10.7,-0.1,30.40,SW,236,1.0,7.0,61,0.00,,,0.00,VWS V14.01,2013-01-22 18:14:00,
2013-01-22 13:19:00,10.9,-1.0,30.39,WSW,243,4.0,8.0,58,0.00,,,0.00,VWS V14.01,2013-01-22 18:19:00,
2013-01-22 13:24:00,10.6,-0.9,30.39,WNW,284,2.0,8.0,59,0.00,,,0.00,VWS V14.01,2013-01-22 18:24:00,
2013-01-22 13:29:00,11.2,0.0,30.39,NW,312,1.0,4.0,60,0.00,,,0.00,VWS V14.01,2013-01-22 18:29:00,
2013-01-22 13:30:00,10.9,-0.6,30.39,West,270,0.0,8.0,59,0.00,,,0.00,VWS V14.01,2013-01-22 18:30:00,
2013-01-22 13:34:00,11.6,0.1,30.39,WNW,285,1.0,6.0,59,0.00,,,0.00,VWS V14.01,2013-01-22 18:34:00,
2013-01-22 13:39:00,12.1,-0.2,30.39,WSW,250,1.0,6.0,57,0.00,,,0.00,VWS V14.01,2013-01-22 18:39:00,
2013-01-22 13:44:00,12.6,0.3,30.38,WNW,300,7.0,10.0,57,0.00,,,0.00,VWS V14.01,2013-01-22 18:44:00,
2013-01-22 13:49:00,12.1,-1.0,30.38,West,280,5.0,10.0,55,0.00,,,0.00,VWS V14.01,2013-01-22 18:49:00,
2013-01-22 13:54:00,11.3,-1.0,30.38,NNE,25,1.0,10.0,57,0.00,,,0.00,VWS V14.01,2013-01-22 18:54:00,
2013-01-22 13:59:00,11.0,-0.9,30.39,NW,312,5.0,6.0,58,0.00,,,0.00,VWS V14.01,2013-01-22 18:59:00,
2013-01-22 14:00:00,11.0,-1.2,30.38,WNW,288,3.0,10.0,57,0.00,,,0.00,VWS V14.01,2013-01-22 19:00:00,
2013-01-22 14:04:00,11.1,-1.1,30.39,WNW,288,4.0,8.0,57,0.00,,,0.00,VWS V14.01,2013-01-22 19:04:00,
2013-01-22 14:09:00,11.3,-1.0,30.39,WSW,246,1.0,9.0,57,0.00,,,0.00,VWS V14.01,2013-01-22 19:09:00,
2013-01-22 14:14:00,11.7,-0.6,30.39,NW,304,3.0,11.0,57,0.00,,,0.00,VWS V14.01,2013-01-22 19:14:00,
2013-01-22 14:19:00,12.2,-0.1,30.39,WNW,299,4.0,11.0,57,0.00,,,0.00,VWS V14.01,2013-01-22 19:19:00,
2013-01-22 14:24:00,12.0,-0.7,30.39,WNW,294,9.0,14.0,56,0.00,,,0.00,VWS V14.01,2013-01-22 19:24:00,
2013-01-22 14:29:00,12.1,-0.6,30.39,West,272,3.0,8.0,56,0.00,,,0.00,VWS V14.01,2013-01-22 19:29:00,
2013-01-22 14:30:00,12.0,-0.7,30.39,West,278,1.0,14.0,56,0.00,,,0.00,VWS V14.01,2013-01-22 19:30:00,
2013-01-22 14:34:00,12.3,-0.4,30.39,WNW,301,7.0,9.0,56,0.00,,,0.00,VWS V14.01,2013-01-22 19:34:00,
2013-01-22 14:39:00,12.6,-0.5,30.39,WSW,248,5.0,11.0,55,0.00,,,0.00,VWS V14.01,2013-01-22 19:39:00,
2013-01-22 14:44:00,13.0,-0.1,30.39,WNW,293,3.0,11.0,55,0.00,,,0.00,VWS V14.01,2013-01-22 19:44:00,
2013-01-22 14:49:00,12.8,-0.3,30.39,West,279,6.0,11.0,55,0.00,,,0.00,VWS V14.01,2013-01-22 19:49:00,
2013-01-22 14:54:00,13.2,0.1,30.39,West,271,3.0,11.0,55,0.00,,,0.00,VWS V14.01,2013-01-22 19:54:00,
2013-01-22 14:59:00,12.9,-1.0,30.39,West,260,6.0,7.0,53,0.00,,,0.00,VWS V14.01,2013-01-22 19:59:00,
2013-01-22 15:00:00,13.2,-0.3,30.39,WNW,287,3.0,11.0,54,0.00,,,0.00,VWS V14.01,2013-01-22 20:00:00,
2013-01-22 15:04:00,12.9,-0.6,30.39,West,259,2.0,10.0,54,0.00,,,0.00,VWS V14.01,2013-01-22 20:04:00,
2013-01-22 15:09:00,13.2,-0.3,30.38,NW,304,5.0,10.0,54,0.00,,,0.00,VWS V14.01,2013-01-22 20:09:00,
2013-01-22 15:14:00,13.2,-0.7,30.39,WNW,297,4.0,10.0,53,0.00,,,0.00,VWS V14.01,2013-01-22 20:14:00,
2013-01-22 15:19:00,13.4,-0.1,30.39,WNW,297,2.0,10.0,54,0.00,,,0.00,VWS V14.01,2013-01-22 20:19:00,
2013-01-22 15:24:00,13.8,0.2,30.39,NW,316,6.0,10.0,54,0.00,,,0.00,VWS V14.01,2013-01-22 20:24:00,
2013-01-22 15:29:00,13.7,-0.2,30.39,WNW,300,5.0,5.0,53,0.00,,,0.00,VWS V14.01,2013-01-22 20:29:00,
2013-01-22 15:30:00,13.7,-0.2,30.39,NW,305,3.0,10.0,53,0.00,,,0.00,VWS V14.01,2013-01-22 20:30:00,
2013-01-22 15:34:00,13.8,-0.6,30.39,WNW,287,5.0,7.0,52,0.00,,,0.00,VWS V14.01,2013-01-22 20:34:00,
2013-01-22 15:39:00,13.7,-0.2,30.39,WNW,300,7.0,9.0,53,0.00,,,0.00,VWS V14.01,2013-01-22 20:39:00,
2013-01-22 15:44:00,13.6,-0.8,30.39,WSW,243,5.0,9.0,52,0.00,,,0.00,VWS V14.01,2013-01-22 20:44:00,
2013-01-22 15:49:00,13.8,-0.2,30.39,WSW,257,5.0,9.0,53,0.00,,,0.00,VWS V14.01,2013-01-22 20:49:00,
2013-01-22 15:54:00,14.0,-0.8,30.39,WNW,290,3.0,9.0,51,0.00,,,0.00,VWS V14.01,2013-01-22 20:54:00,
2013-01-22 15:59:00,14.2,-0.6,30.39,WNW,290,3.0,8.0,51,0.00,,,0.00,VWS V14.01,2013-01-22 20:59:00,
2013-01-22 16:00:00,14.2,-0.2,30.39,SSW,208,4.0,9.0,52,0.00,,,0.00,VWS V14.01,2013-01-22 21:00:00,
2013-01-22 16:04:00,14.0,-0.8,30.39,WNW,288,3.0,8.0,51,0.00,,,0.00,VWS V14.01,2013-01-22 21:04:00,
2013-01-22 16:09:00,14.0,-0.4,30.38,WNW,289,1.0,8.0,52,0.00,,,0.00,VWS V14.01,2013-01-22 21:09:00,
2013-01-22 16:14:00,14.2,-0.2,30.39,WNW,294,1.0,8.0,52,0.00,,,0.00,VWS V14.01,2013-01-22 21:14:00,
2013-01-22 16:19:00,14.0,-0.8,30.39,West,274,3.0,8.0,51,0.00,,,0.00,VWS V14.01,2013-01-22 21:19:00,
2013-01-22 16:24:00,14.1,-0.7,30.39,SW,219,3.0,8.0,51,0.00,,,0.00,VWS V14.01,2013-01-22 21:24:00,
2013-01-22 16:29:00,13.9,-0.9,30.39,NW,316,4.0,8.0,51,0.00,,,0.00,VWS V14.01,2013-01-22 21:29:00,
2013-01-22 16:30:00,13.9,-0.5,30.39,NNW,347,4.0,9.0,52,0.00,,,0.00,VWS V14.01,2013-01-22 21:30:00,
2013-01-22 16:31:00,13.8,-1.0,30.39,SW,231,3.0,9.0,51,0.00,,,0.00,VWS V14.01,2013-01-22 21:31:00,
2013-01-22 16:36:00,13.8,-1.0,30.38,WSW,253,1.0,9.0,51,0.00,,,0.00,VWS V14.01,2013-01-22 21:36:00,
2013-01-22 16:41:00,14.1,-0.3,30.38,West,281,1.0,9.0,52,0.00,,,0.00,VWS V14.01,2013-01-22 21:41:00,
2013-01-22 16:46:00,14.2,-0.2,30.38,WSW,249,4.0,9.0,52,0.00,,,0.00,VWS V14.01,2013-01-22 21:46:00,
2013-01-22 16:51:00,14.1,-0.7,30.38,NW,308,2.0,9.0,51,0.00,,,0.00,VWS V14.01,2013-01-22 21:51:00,
2013-01-22 16:56:00,13.9,-0.9,30.38,SSW,204,0.0,9.0,51,0.00,,,0.00,VWS V14.01,2013-01-22 21:56:00,
2013-01-22 17:00:00,13.8,-1.0,30.38,West,276,3.0,9.0,51,0.00,,,0.00,VWS V14.01,2013-01-22 22:00:00,
2013-01-22 17:01:00,13.8,-1.0,30.38,SW,225,3.0,7.0,51,0.00,,,0.00,VWS V14.01,2013-01-22 22:01:00,
2013-01-22 17:11:00,13.5,-0.8,30.38,WSW,248,1.0,1.0,52,0.00,,,0.00,VWS V14.01,2013-01-22 22:11:00,
2013-01-22 17:16:00,13.4,-0.9,30.38,West,263,3.0,6.0,52,0.00,,,0.00,VWS V14.01,2013-01-22 22:16:00,
2013-01-22 17:22:00,13.2,-1.5,30.38,NW,317,3.0,3.0,51,0.00,,,0.00,VWS V14.01,2013-01-22 22:22:00,
2013-01-22 17:27:00,13.1,-1.2,30.38,WSW,255,1.0,1.0,52,0.00,,,0.00,VWS V14.01,2013-01-22 22:27:00,
2013-01-22 17:30:00,13.1,-1.2,30.38,WSW,255,1.0,1.0,52,0.00,,,0.00,VWS V14.01,2013-01-22 22:30:00,
2013-01-22 17:33:00,13.0,-1.3,30.38,WSW,248,4.0,4.0,52,0.00,,,0.00,VWS V14.01,2013-01-22 22:33:00,
2013-01-22 17:38:00,12.9,-1.4,30.38,WSW,240,1.0,7.0,52,0.00,,,0.00,VWS V14.01,2013-01-22 22:38:00,
2013-01-22 17:43:00,12.8,-1.1,30.38,WNW,287,3.0,3.0,53,0.00,,,0.00,VWS V14.01,2013-01-22 22:43:00,
2013-01-22 17:48:00,12.7,-1.2,30.38,WNW,295,2.0,5.0,53,0.00,,,0.00,VWS V14.01,2013-01-22 22:48:00,
2013-01-22 17:53:00,12.6,-0.9,30.38,West,272,2.0,5.0,54,0.00,,,0.00,VWS V14.01,2013-01-22 22:53:00,
2013-01-22 17:58:00,12.5,-1.0,30.39,WNW,284,1.0,1.0,54,0.00,,,0.00,VWS V14.01,2013-01-22 22:58:00,
2013-01-22 18:00:00,12.5,-1.0,30.39,WNW,299,1.0,5.0,54,0.00,,,0.00,VWS V14.01,2013-01-22 23:00:00,
2013-01-22 18:03:00,12.4,-1.1,30.38,WSW,256,3.0,5.0,54,0.00,,,0.00,VWS V14.01,2013-01-22 23:03:00,
2013-01-22 18:08:00,12.4,-0.7,30.38,WNW,301,1.0,5.0,55,0.00,,,0.00,VWS V14.01,2013-01-22 23:08:00,
2013-01-22 18:13:00,12.4,-0.7,30.38,SW,236,2.0,5.0,55,0.00,,,0.00,VWS V14.01,2013-01-22 23:13:00,
2013-01-22 18:18:00,12.4,-0.7,30.38,NW,316,2.0,5.0,55,0.00,,,0.00,VWS V14.01,2013-01-22 23:18:00,
2013-01-22 18:23:00,12.4,-0.7,30.38,WSW,255,1.0,3.0,55,0.00,,,0.00,VWS V14.01,2013-01-22 23:23:00,
2013-01-22 18:28:00,12.4,-0.7,30.39,West,269,3.0,4.0,55,0.00,,,0.00,VWS V14.01,2013-01-22 23:28:00,
2013-01-22 18:30:00,12.4,-0.7,30.39,NW,304,4.0,5.0,55,0.00,,,0.00,VWS V14.01,2013-01-22 23:30:00,
2013-01-22 18:33:00,12.4,-0.7,30.39,West,276,1.0,8.0,55,0.00,,,0.00,VWS V14.01,2013-01-22 23:33:00,
2013-01-22 18:38:00,12.5,-0.6,30.38,NW,312,2.0,8.0,55,0.00,,,0.00,VWS V14.01,2013-01-22 23:38:00,
2013-01-22 18:43:00,12.6,-0.1,30.38,WNW,300,3.0,8.0,56,0.00,,,0.00,VWS V14.01,2013-01-22 23:43:00,
2013-01-22 18:48:00,12.6,-0.1,30.38,WNW,293,1.0,8.0,56,0.00,,,0.00,VWS V14.01,2013-01-22 23:48:00,
2013-01-22 18:53:00,12.6,-0.1,30.39,West,278,2.0,8.0,56,0.00,,,0.00,VWS V14.01,2013-01-22 23:53:00,
2013-01-22 18:58:00,12.6,-0.5,30.38,WNW,283,2.0,5.0,55,0.00,,,0.00,VWS V14.01,2013-01-22 23:58:00,
2013-01-22 19:00:00,12.6,-0.5,30.38,West,273,5.0,8.0,55,0.00,,,0.00,VWS V14.01,2013-01-23 00:00:00,
2013-01-22 19:03:00,12.5,-0.6,30.38,WNW,287,3.0,6.0,55,0.00,,,0.00,VWS V14.01,2013-01-23 00:03:00,
2013-01-22 19:08:00,12.5,-0.6,30.38,NW,304,0.0,6.0,55,0.00,,,0.00,VWS V14.01,2013-01-23 00:08:00,
2013-01-22 19:14:00,12.5,-0.6,30.39,WNW,294,2.0,2.0,55,0.00,,,0.00,VWS V14.01,2013-01-23 00:14:00,
2013-01-22 19:19:00,12.4,-1.1,30.39,WSW,249,3.0,7.0,54,0.00,,,0.00,VWS V14.01,2013-01-23 00:19:00,
2013-01-22 19:24:00,12.4,-1.1,30.38,WNW,300,2.0,7.0,54,0.00,,,0.00,VWS V14.01,2013-01-23 00:24:00,
2013-01-22 19:29:00,12.4,-1.1,30.39,NW,314,2.0,7.0,54,0.00,,,0.00,VWS V14.01,2013-01-23 00:29:00,
2013-01-22 19:30:00,12.4,-1.1,30.39,WNW,283,3.0,7.0,54,0.00,,,0.00,VWS V14.01,2013-01-23 00:30:00,
2013-01-22 19:34:00,12.4,-0.7,30.38,West,281,5.0,7.0,55,0.00,,,0.00,VWS V14.01,2013-01-23 00:34:00,
2013-01-22 19:39:00,12.4,-1.1,30.38,NW,306,2.0,7.0,54,0.00,,,0.00,VWS V14.01,2013-01-23 00:39:00,
2013-01-22 19:44:00,12.4,-1.1,30.38,WNW,287,2.0,7.0,54,0.00,,,0.00,VWS V14.01,2013-01-23 00:44:00,
2013-01-22 19:50:00,12.3,-1.2,30.38,West,259,4.0,4.0,54,0.00,,,0.00,VWS V14.01,2013-01-23 00:50:00,
2013-01-22 19:55:00,12.3,-0.8,30.38,WNW,300,3.0,8.0,55,0.00,,,0.00,VWS V14.01,2013-01-23 00:55:00,
2013-01-22 20:00:00,12.3,-0.8,30.38,WNW,289,2.0,5.0,55,0.00,,,0.00,VWS V14.01,2013-01-23 01:00:00,
2013-01-22 20:05:00,12.2,-0.9,30.37,WNW,287,3.0,7.0,55,0.00,,,0.00,VWS V14.01,2013-01-23 01:05:00,
2013-01-22 20:10:00,12.2,-1.3,30.37,West,276,4.0,8.0,54,0.00,,,0.00,VWS V14.01,2013-01-23 01:10:00,
2013-01-22 20:15:00,12.1,-1.4,30.38,WNW,290,4.0,8.0,54,0.00,,,0.00,VWS V14.01,2013-01-23 01:15:00,
2013-01-22 20:20:00,12.0,-1.1,30.38,WNW,287,1.0,8.0,55,0.00,,,0.00,VWS V14.01,2013-01-23 01:20:00,
2013-01-22 20:25:00,11.9,-1.1,30.38,WNW,293,3.0,8.0,55,0.00,,,0.00,VWS V14.01,2013-01-23 01:25:00,
2013-01-22 20:30:00,11.9,-1.1,30.38,NW,307,3.0,4.0,55,0.00,,,0.00,VWS V14.01,2013-01-23 01:30:00,
2013-01-22 20:35:00,11.8,-1.2,30.38,NW,316,1.0,5.0,55,0.00,,,0.00,VWS V14.01,2013-01-23 01:35:00,
2013-01-22 20:40:00,11.9,-1.1,30.38,WNW,290,2.0,5.0,55,0.00,,,0.00,VWS V14.01,2013-01-23 01:40:00,
2013-01-22 20:45:00,11.9,-2.0,30.38,WNW,284,5.0,8.0,55,0.00,,,0.00,weatherlink.com 1.10,2013-01-23 01:45:00,
2013-01-22 20:50:00,11.9,-1.1,30.38,NW,306,4.0,9.0,55,0.00,,,0.00,VWS V14.01,2013-01-23 01:50:00,
2013-01-22 20:55:00,11.9,-1.1,30.38,WNW,293,1.0,9.0,55,0.00,,,0.00,VWS V14.01,2013-01-23 01:55:00,
2013-01-22 21:00:00,11.9,-1.1,30.38,WNW,300,8.0,8.0,55,0.00,,,0.00,VWS V14.01,2013-01-23 02:00:00,
2013-01-22 21:05:00,11.9,-1.1,30.38,NW,307,6.0,6.0,55,0.00,,,0.00,VWS V14.01,2013-01-23 02:05:00,
2013-01-22 21:10:00,11.9,-1.1,30.38,West,280,2.0,6.0,55,0.00,,,0.00,VWS V14.01,2013-01-23 02:10:00,
2013-01-22 21:15:00,11.9,-0.8,30.38,WNW,297,3.0,7.0,56,0.00,,,0.00,VWS V14.01,2013-01-23 02:15:00,
2013-01-22 21:20:00,11.9,-0.8,30.38,West,266,2.0,7.0,56,0.00,,,0.00,VWS V14.01,2013-01-23 02:20:00,
2013-01-22 21:25:00,11.9,-0.8,30.39,WNW,284,1.0,7.0,56,0.00,,,0.00,VWS V14.01,2013-01-23 02:25:00,
2013-01-22 21:30:00,11.9,-0.8,30.38,WSW,248,7.0,7.0,56,0.00,,,0.00,VWS V14.01,2013-01-23 02:30:00,
2013-01-22 21:35:00,11.8,-0.5,30.38,NW,310,1.0,7.0,57,0.00,,,0.00,VWS V14.01,2013-01-23 02:35:00,
2013-01-22 21:40:00,11.8,-0.5,30.39,West,269,4.0,7.0,57,0.00,,,0.00,VWS V14.01,2013-01-23 02:40:00,
2013-01-22 21:45:00,11.8,-0.5,30.39,WNW,301,2.0,7.0,57,0.00,,,0.00,VWS V14.01,2013-01-23 02:45:00,
2013-01-22 21:50:00,11.8,-0.9,30.39,WNW,300,0.0,7.0,56,0.00,,,0.00,VWS V14.01,2013-01-23 02:50:00,
2013-01-22 21:55:00,11.7,-1.0,30.39,NW,326,4.0,7.0,56,0.00,,,0.00,VWS V14.01,2013-01-23 02:55:00,
2013-01-22 22:00:00,11.7,-0.6,30.39,West,271,3.0,6.0,57,0.00,,,0.00,VWS V14.01,2013-01-23 03:00:00,
2013-01-22 22:05:00,11.7,-0.6,30.39,South,175,3.0,6.0,57,0.00,,,0.00,VWS V14.01,2013-01-23 03:05:00,
2013-01-22 22:10:00,11.7,-0.2,30.39,WSW,250,4.0,6.0,58,0.00,,,0.00,VWS V14.01,2013-01-23 03:10:00,
2013-01-22 22:15:00,11.7,-0.2,30.40,WNW,294,1.0,6.0,58,0.00,,,0.00,VWS V14.01,2013-01-23 03:15:00,
2013-01-22 22:20:00,11.6,-0.3,30.39,WNW,302,3.0,6.0,58,0.00,,,0.00,VWS V14.01,2013-01-23 03:20:00,
2013-01-22 22:25:00,11.6,0.1,30.39,WNW,295,5.0,7.0,59,0.00,,,0.00,VWS V14.01,2013-01-23 03:25:00,
2013-01-22 22:30:00,11.6,0.1,30.39,WNW,290,1.0,1.0,59,0.00,,,0.00,VWS V14.01,2013-01-23 03:30:00,
2013-01-22 22:35:00,11.6,0.1,30.40,NW,314,1.0,3.0,59,0.00,,,0.00,VWS V14.01,2013-01-23 03:35:00,
2013-01-22 22:40:00,11.6,0.1,30.40,West,267,2.0,5.0,59,0.00,,,0.00,VWS V14.01,2013-01-23 03:40:00,
2013-01-22 22:45:00,11.6,0.1,30.40,WNW,283,1.0,5.0,59,0.00,,,0.00,VWS V14.01,2013-01-23 03:45:00,
2013-01-22 22:50:00,11.5,0.0,30.40,West,259,0.0,5.0,59,0.00,,,0.00,VWS V14.01,2013-01-23 03:50:00,
2013-01-22 22:55:00,11.5,0.0,30.40,WNW,293,0.0,6.0,59,0.00,,,0.00,VWS V14.01,2013-01-23 03:55:00,
2013-01-22 23:00:00,11.3,-0.2,30.40,WNW,290,3.0,6.0,59,0.00,,,0.00,VWS V14.01,2013-01-23 04:00:00,
2013-01-22 23:10:00,11.1,-0.4,30.40,West,264,2.0,2.0,59,0.00,,,0.00,VWS V14.01,2013-01-23 04:10:00,
2013-01-22 23:15:00,11.0,-0.2,30.40,WNW,300,2.0,4.0,60,0.00,,,0.00,VWS V14.01,2013-01-23 04:15:00,
2013-01-22 23:20:00,11.0,-0.2,30.40,West,269,2.0,5.0,60,0.00,,,0.00,VWS V14.01,2013-01-23 04:20:00,
2013-01-22 23:25:00,11.0,0.2,30.40,West,276,0.0,8.0,61,0.00,,,0.00,VWS V14.01,2013-01-23 04:25:00,
2013-01-22 23:30:00,11.1,0.3,30.40,West,271,3.0,4.0,61,0.00,,,0.00,VWS V14.01,2013-01-23 04:30:00,
2013-01-22 23:35:00,11.2,0.4,30.40,WNW,287,0.0,4.0,61,0.00,,,0.00,VWS V14.01,2013-01-23 04:35:00,
2013-01-22 23:40:00,11.2,0.4,30.40,WNW,290,1.0,4.0,61,0.00,,,0.00,VWS V14.01,2013-01-23 04:40:00,
2013-01-22 23:45:00,11.3,0.8,30.40,NW,304,0.0,4.0,62,0.00,,,0.00,VWS V14.01,2013-01-23 04:45:00,
2013-01-22 23:50:00,11.3,0.8,30.40,North,359,5.0,5.0,62,0.00,,,0.00,VWS V14.01,2013-01-23 04:50:00,
2013-01-22 23:55:00,11.3,0.5,30.40,NNW,328,3.0,5.0,61,0.00,,,0.00,VWS V14.01,2013-01-23 04:55:00,